Weather History for Arctic Village, AK

Change the Weather History Date:

Sunday, January 12, 2014

  Actual Average Record
Temperature  
Mean Temperature -36 °F -  
Max Temperature -27 °F -4 °F 12 °F (2002)
Min Temperature -45 °F -26 °F -51 °F (1991)
Degree Days  
Heating Degree Days 101    
Moisture  
Dew Point -    
Average Humidity    
Maximum Humidity    
Minimum Humidity    
Precipitation  
Precipitation 0.00 in - - ()
Sea Level Pressure  
Sea Level Pressure 29.13 in    
Wind  
Wind Speed 0 mph (North)    
Max Wind Speed 0 mph    
Max Gust Speed -    
Visibility 8 miles    
Events      
Averages and records for this station are not official NWS values.
T = Trace of Precipitation, MM = Missing Value Source: NWS Daily Summary

Daily Weather History Graph

Daily Weather History Graph

Search for Another Location

Airport:

Trip Planner

Search our weather history database for the weather conditions in past years. The results will help you decide how hot, cold, wet, or windy it might be!

Date:

Astronomy

Jan. 12, 2014 Rise Set
Actual Time 11:31 AM AKST 2:10 PM AKST
Civil Twilight 9:42 AM AKST 3:59 PM AKST
Nautical Twilight 8:21 AM AKST 5:21 PM AKST
Astronomical Twilight 7:12 AM AKST 6:30 PM AKST
Moon 12:13 PM AKST (1/12) 8:09 AM AKST (1/12)
Length of Visible Light 6h 16m
Length of Day
2h 38m
Waxing Gibbous, 90% of the Moon is Illuminated
Jan 12
Waxing Gibbous
Jan 15
Full
Jan 23
Last Quarter
Jan 30
New
Feb 6
First Quarter

Hourly Weather History & Observations

Time (AKST) Temp. Dew Point Humidity Pressure Visibility Wind Dir Wind Speed Gust Speed Precip Events Conditions
12:16 AM -36.4 °F - N/A% 29.11 in 5.0 mi Calm Calm - N/A   Mostly Cloudy
12:36 AM -34.6 °F - N/A% 29.11 in 5.0 mi Calm Calm - N/A   Overcast
12:56 AM -34.6 °F - N/A% 29.11 in 2.5 mi Calm Calm - N/A   Overcast
1:16 AM -32.8 °F - N/A% 29.11 in 2.0 mi Calm Calm - N/A   Overcast
1:36 AM -32.8 °F - N/A% 29.11 in 2.5 mi Calm Calm - N/A   Overcast
1:56 AM -32.8 °F - N/A% 29.10 in 9.0 mi Calm Calm - N/A   Overcast
2:16 AM -31.0 °F - N/A% 29.10 in 7.0 mi Calm Calm - N/A   Overcast
2:36 AM -31.0 °F - N/A% 29.10 in 8.0 mi Calm Calm - N/A   Overcast
2:56 AM -29.2 °F - N/A% 29.10 in 10.0 mi Calm Calm - N/A   Overcast
3:16 AM -29.2 °F - N/A% 29.09 in 10.0 mi Calm Calm - N/A   Mostly Cloudy
3:36 AM -29.2 °F - N/A% 29.09 in 10.0 mi Calm Calm - N/A   Clear
3:56 AM -29.2 °F - N/A% 29.09 in 10.0 mi Calm Calm - N/A   Clear
4:16 AM -29.2 °F - N/A% 29.09 in 10.0 mi Calm Calm - N/A   Clear
4:36 AM -29.2 °F - N/A% 29.09 in 10.0 mi Calm Calm - N/A   Clear
4:56 AM -29.2 °F - N/A% 29.09 in 10.0 mi Calm Calm - N/A   Clear
5:16 AM -29.2 °F - N/A% 29.08 in 10.0 mi Calm Calm - N/A   Clear
5:36 AM -29.2 °F - N/A% 29.08 in 10.0 mi Calm Calm - N/A   Clear
5:56 AM -29.2 °F - N/A% 29.08 in 10.0 mi Calm Calm - N/A   Clear
6:16 AM -31.0 °F - N/A% 29.08 in 10.0 mi Calm Calm - N/A   Clear
6:36 AM -29.2 °F - N/A% 29.08 in 10.0 mi Calm Calm - N/A   Scattered Clouds
6:56 AM -32.8 °F - N/A% 29.08 in 10.0 mi Calm Calm - N/A   Partly Cloudy
7:16 AM -32.8 °F - N/A% 29.07 in 10.0 mi Calm Calm - N/A   Clear
7:36 AM -29.2 °F - N/A% 29.07 in 10.0 mi Calm Calm - N/A   Scattered Clouds
7:56 AM -31.0 °F - N/A% 29.07 in 10.0 mi Calm Calm - N/A   Scattered Clouds
8:16 AM -29.2 °F - N/A% 29.07 in 10.0 mi Calm Calm - N/A   Clear
8:36 AM -29.2 °F - N/A% 29.08 in 10.0 mi Calm Calm - N/A   Clear
8:56 AM -29.2 °F - N/A% 29.07 in 10.0 mi Calm Calm - N/A   Clear
9:16 AM -27.4 °F - N/A% 29.07 in 10.0 mi Calm Calm - N/A   Partly Cloudy
9:36 AM -31.0 °F - N/A% 29.08 in 10.0 mi Calm Calm - N/A   Mostly Cloudy
9:56 AM -29.2 °F - N/A% 29.08 in 10.0 mi Calm Calm - N/A   Overcast
10:16 AM -29.2 °F - N/A% 29.08 in 10.0 mi Calm Calm - N/A   Scattered Clouds
10:36 AM -29.2 °F - N/A% 29.08 in 10.0 mi Calm Calm - N/A   Clear
10:56 AM -31.0 °F - N/A% 29.09 in 10.0 mi Calm Calm - N/A   Clear
11:16 AM -31.0 °F - N/A% 29.09 in 10.0 mi Calm Calm - N/A   Clear
11:36 AM -29.2 °F - N/A% 29.10 in 10.0 mi Calm Calm - N/A   Clear
11:56 AM -32.8 °F - N/A% 29.10 in 10.0 mi Calm Calm - N/A   Clear
12:16 PM -32.8 °F - N/A% 29.10 in 10.0 mi Calm Calm - N/A   Clear
12:36 PM -32.8 °F - N/A% 29.10 in 10.0 mi Calm Calm - N/A   Clear
12:56 PM -32.8 °F - N/A% 29.11 in 10.0 mi Calm Calm - N/A   Clear
1:16 PM -34.6 °F - N/A% 29.11 in 10.0 mi Calm Calm - N/A   Clear
1:36 PM -34.6 °F - N/A% 29.11 in 3.0 mi Calm Calm - N/A   Clear
1:56 PM -34.6 °F - N/A% 29.12 in 5.0 mi Calm Calm - N/A   Clear
2:16 PM -36.4 °F - N/A% 29.12 in 7.0 mi Calm Calm - N/A   Clear
2:36 PM -32.8 °F - N/A% 29.12 in 9.0 mi Calm Calm - N/A   Clear
2:56 PM -34.6 °F - N/A% 29.12 in 5.0 mi Calm Calm - N/A   Clear
3:16 PM -36.4 °F - N/A% 29.13 in 4.0 mi Calm Calm - N/A   Clear
3:36 PM -34.6 °F - N/A% 29.13 in 10.0 mi Calm Calm - N/A   Clear
3:56 PM -38.2 °F - N/A% 29.13 in 3.0 mi Calm Calm - N/A   Clear
4:16 PM -38.2 °F - N/A% 29.13 in 10.0 mi Calm Calm - N/A   Clear
4:36 PM -36.4 °F - N/A% 29.13 in 9.0 mi Calm Calm - N/A   Clear
4:56 PM -38.2 °F - N/A% 29.14 in 8.0 mi Calm Calm - N/A   Clear
5:16 PM -38.2 °F - N/A% 29.14 in 10.0 mi Calm Calm - N/A   Clear
5:36 PM -40.0 °F - N/A% 29.14 in 10.0 mi Calm Calm - N/A   Clear
5:56 PM -41.8 °F - N/A% 29.14 in 10.0 mi Calm Calm - N/A   Clear
6:16 PM -40.0 °F - N/A% 29.15 in 5.0 mi Calm Calm - N/A   Clear
6:36 PM -40.0 °F - N/A% 29.15 in 9.0 mi Calm Calm - N/A   Clear
6:56 PM -38.2 °F - N/A% 29.16 in 9.0 mi Calm Calm - N/A   Clear
7:16 PM -43.6 °F - N/A% 29.17 in 4.0 mi Calm Calm - N/A   Clear
7:36 PM -41.8 °F - N/A% 29.17 in 10.0 mi Calm Calm - N/A   Clear
7:56 PM -40.0 °F - N/A% 29.18 in 8.0 mi Calm Calm - N/A   Clear
8:16 PM -38.2 °F - N/A% 29.18 in 4.0 mi Calm Calm - N/A   Clear
8:36 PM - - N/A% 29.19 in 1.5 mi Calm Calm - N/A   Clear
8:56 PM -45.4 °F - N/A% 29.20 in 1.8 mi Calm Calm - N/A   Clear
9:16 PM -41.8 °F - N/A% 29.21 in 4.0 mi Calm Calm - N/A   Clear
9:36 PM -41.8 °F - N/A% 29.22 in 5.0 mi Calm Calm - N/A   Clear
9:56 PM -45.4 °F - N/A% 29.22 in 2.5 mi Calm Calm - N/A   Clear
10:16 PM -43.6 °F - N/A% 29.23 in 3.0 mi Calm Calm - N/A   Clear
10:36 PM - - N/A% 29.23 in 2.0 mi Calm Calm - N/A   Clear
10:56 PM -40.0 °F - N/A% 29.24 in 10.0 mi Calm Calm - N/A   Clear
11:16 PM -43.6 °F - N/A% 29.25 in 2.5 mi Calm Calm - N/A   Clear
11:36 PM -41.8 °F - N/A% 29.25 in 2.5 mi Calm Calm - N/A   Clear
11:56 PM -40.0 °F - N/A% 29.26 in 2.5 mi Calm Calm - N/A   Clear